• Em Portugal
  • Lista de países
  • Para 7 dias
  • Temperatura da água
  • Mapas de satélite
  • Mapa do tempo
  • Widgets de tempo
  • user-avatar
    Iniciar Sessão

    Previsão horária em Erdenetsagaan

    Hoje, 11 Dezembro, Segunda-feira

    Tempo Temperatura Precipitação Vento Pressão Humidade
    00:00 -27°C° 0 mm 5 m/s 671 mmHg 75%
    01:00 -28°C° 0 mm 5 m/s 672 mmHg 76%
    02:00 -28°C° 0 mm 5 m/s 672 mmHg 74%
    03:00 -28°C° 0 mm 5 m/s 672 mmHg 74%
    04:00 -28°C° 0 mm 5 m/s 673 mmHg 74%
    05:00 -28°C° 0 mm 5 m/s 673 mmHg 75%
    06:00 -28°C° 0 mm 5 m/s 673 mmHg 75%
    07:00 -29°C° 0 mm 5 m/s 673 mmHg 76%
    08:00 -29°C° 0 mm 5 m/s 673 mmHg 78%
    09:00 -28°C° 0 mm 5 m/s 673 mmHg 74%
    10:00 -27°C° 0 mm 5 m/s 673 mmHg 71%
    11:00 -28°C° 0 mm 6 m/s 673 mmHg 67%
    12:00 -27°C° 0 mm 6 m/s 674 mmHg 66%
    13:00 -26°C° 0 mm 5 m/s 674 mmHg 65%
    14:00 -25°C° 0 mm 5 m/s 674 mmHg 64%
    15:00 -26°C° 0 mm 5 m/s 674 mmHg 68%
    16:00 -25°C° 0 mm 4 m/s 673 mmHg 71%
    17:00 -25°C° 0 mm 3 m/s 673 mmHg 75%
    18:00 -25°C° 0 mm 3 m/s 673 mmHg 77%
    19:00 -25°C° 0 mm 3 m/s 673 mmHg 78%
    20:00 -25°C° 0 mm 3 m/s 673 mmHg 79%
    21:00 -24°C° 0 mm 2 m/s 673 mmHg 80%
    22:00 -24°C° 0 mm 2 m/s 673 mmHg 80%
    23:00 -25°C° 0 mm 2 m/s 674 mmHg 81%

    Amanhã, 12 Dezembro, Terça-feira

    Tempo Temperatura Precipitação Vento Pressão Humidade
    00:00 -25°C° 0 mm 2 m/s 673 mmHg 81%
    01:00 -25°C° 0 mm 2 m/s 673 mmHg 81%
    02:00 -25°C° 0 mm 2 m/s 673 mmHg 81%
    03:00 -25°C° 0 mm 2 m/s 673 mmHg 81%
    04:00 -25°C° 0 mm 2 m/s 673 mmHg 81%
    05:00 -25°C° 0 mm 2 m/s 673 mmHg 81%
    06:00 -22°C° 0 mm 1 m/s 673 mmHg 81%
    07:00 -22°C° 0 mm 1 m/s 673 mmHg 81%
    08:00 -22°C° 0 mm 1 m/s 673 mmHg 81%
    09:00 -21°C° 0 mm 1 m/s 673 mmHg 77%
    10:00 -20°C° 0 mm 1 m/s 674 mmHg 73%
    11:00 -19°C° 0 mm 1 m/s 674 mmHg 68%
    12:00 -19°C° 0 mm 1 m/s 674 mmHg 66%
    13:00 -18°C° 0 mm 1 m/s 674 mmHg 64%
    14:00 -18°C° 0 mm 1 m/s 674 mmHg 62%
    15:00 -18°C° 0 mm 1 m/s 674 mmHg 66%
    16:00 -19°C° 0 mm 1 m/s 674 mmHg 71%
    17:00 -20°C° 0 mm 1 m/s 674 mmHg 76%
    18:00 -20°C° 0 mm 1 m/s 674 mmHg 76%
    19:00 -20°C° 0 mm 0 m/s 674 mmHg 76%
    20:00 -20°C° 0 mm 0 m/s 674 mmHg 76%
    21:00 -20°C° 0 mm 0 m/s 674 mmHg 75%
    22:00 -20°C° 0 mm 1 m/s 675 mmHg 73%
    23:00 -21°C° 0 mm 1 m/s 675 mmHg 72%

    Depois de amanhã, 13 Dezembro, Quarta-feira

    Tempo Temperatura Precipitação Vento Pressão Humidade
    00:00 -21°C° 0 mm 1 m/s 675 mmHg 71%
    01:00 -21°C° 0 mm 1 m/s 675 mmHg 69%
    02:00 -20°C° 0 mm 1 m/s 675 mmHg 68%
    03:00 -20°C° 0 mm 1 m/s 675 mmHg 67%
    04:00 -20°C° 0 mm 1 m/s 675 mmHg 65%
    05:00 -20°C° 0 mm 1 m/s 675 mmHg 64%
    06:00 -20°C° 0 mm 1 m/s 675 mmHg 63%
    07:00 -23°C° 0 mm 2 m/s 675 mmHg 62%
    08:00 -23°C° 0 mm 2 m/s 675 mmHg 61%
    09:00 -21°C° 0 mm 2 m/s 676 mmHg 59%
    10:00 -20°C° 0 mm 2 m/s 676 mmHg 56%
    11:00 -19°C° 0 mm 2 m/s 676 mmHg 54%
    12:00 -18°C° 0 mm 2 m/s 676 mmHg 54%
    13:00 -17°C° 0 mm 2 m/s 676 mmHg 54%
    14:00 -16°C° 0 mm 2 m/s 675 mmHg 54%
    15:00 -17°C° 0 mm 2 m/s 675 mmHg 56%
    16:00 -18°C° 0 mm 2 m/s 675 mmHg 58%
    17:00 -18°C° 0 mm 2 m/s 674 mmHg 61%
    18:00 -18°C° 0 mm 2 m/s 674 mmHg 60%
    19:00 -18°C° 0 mm 2 m/s 674 mmHg 59%
    20:00 -18°C° 0 mm 2 m/s 674 mmHg 58%
    21:00 -18°C° 0 mm 2 m/s 674 mmHg 58%
    22:00 -18°C° 0 mm 2 m/s 674 mmHg 57%
    23:00 -18°C° 0 mm 2 m/s 674 mmHg 57%

    14 Dezembro, Quinta-feira

    Tempo Temperatura Precipitação Vento Pressão Humidade
    00:00 -18°C° 0 mm 2 m/s 673 mmHg 57%
    01:00 -18°C° 0 mm 2 m/s 673 mmHg 58%
    02:00 -18°C° 0 mm 2 m/s 673 mmHg 59%
    03:00 -18°C° 0 mm 2 m/s 672 mmHg 60%
    04:00 -18°C° 0 mm 2 m/s 672 mmHg 61%
    05:00 -18°C° 0 mm 2 m/s 672 mmHg 62%
    06:00 -18°C° 0 mm 2 m/s 672 mmHg 63%
    07:00 -18°C° 0 mm 2 m/s 672 mmHg 64%
    08:00 -18°C° 0 mm 2 m/s 672 mmHg 65%
    09:00 -17°C° 0 mm 2 m/s 672 mmHg 64%
    10:00 -18°C° 0 mm 3 m/s 672 mmHg 64%
    11:00 -17°C° 0 mm 3 m/s 672 mmHg 63%
    12:00 -17°C° 0 mm 3 m/s 672 mmHg 66%
    13:00 -17°C° 0 mm 3 m/s 672 mmHg 70%
    14:00 -17°C° 0 mm 3 m/s 672 mmHg 73%
    15:00 -18°C° 0 mm 3 m/s 672 mmHg 78%
    16:00 -18°C° 0 mm 3 m/s 672 mmHg 83%
    17:00 -18°C° 0 mm 2 m/s 672 mmHg 89%
    18:00 -18°C° 0 mm 2 m/s 672 mmHg 89%
    19:00 -18°C° 0 mm 2 m/s 673 mmHg 89%
    20:00 -21°C° 0 mm 3 m/s 673 mmHg 89%
    21:00 -21°C° 0 mm 3 m/s 673 mmHg 89%
    22:00 -21°C° 0 mm 3 m/s 673 mmHg 88%
    23:00 -21°C° 0 mm 3 m/s 673 mmHg 88%

    15 Dezembro, Sexta-feira

    Tempo Temperatura Precipitação Vento Pressão Humidade
    00:00 -22°C° 0 mm 4 m/s 673 mmHg 87%
    01:00 -22°C° 0 mm 4 m/s 673 mmHg 85%
    02:00 -23°C° 0 mm 4 m/s 673 mmHg 84%
    03:00 -23°C° 0 mm 4 m/s 673 mmHg 83%
    04:00 -23°C° 0 mm 4 m/s 673 mmHg 83%
    05:00 -23°C° 0 mm 4 m/s 673 mmHg 82%
    06:00 -23°C° 0 mm 4 m/s 674 mmHg 82%
    07:00 -23°C° 0 mm 4 m/s 674 mmHg 82%
    08:00 -24°C° 0 mm 4 m/s 674 mmHg 82%
    09:00 -23°C° 0 mm 4 m/s 674 mmHg 77%
    10:00 -22°C° 0 mm 4 m/s 675 mmHg 71%
    11:00 -20°C° 0 mm 4 m/s 675 mmHg 66%
    12:00 -19°C° 0 mm 4 m/s 674 mmHg 64%
    13:00 -18°C° 0 mm 4 m/s 674 mmHg 62%
    14:00 -18°C° 0 mm 4 m/s 673 mmHg 60%
    15:00 -19°C° 0 mm 4 m/s 673 mmHg 67%
    16:00 -19°C° 0 mm 4 m/s 673 mmHg 73%
    17:00 -20°C° 0 mm 4 m/s 672 mmHg 80%
    18:00 -21°C° 0 mm 5 m/s 672 mmHg 81%
    19:00 -21°C° 0 mm 5 m/s 672 mmHg 82%
    20:00 -22°C° 0 mm 6 m/s 672 mmHg 82%
    21:00 -22°C° 0 mm 6 m/s 673 mmHg 82%
    22:00 -22°C° 0 mm 6 m/s 673 mmHg 82%
    23:00 -23°C° 0 mm 6 m/s 673 mmHg 81%

    16 Dezembro, Sábado

    Tempo Temperatura Precipitação Vento Pressão Humidade
    00:00 -23°C° 0 mm 6 m/s 673 mmHg 81%
    01:00 -24°C° 0 mm 5 m/s 673 mmHg 81%
    02:00 -25°C° 0 mm 5 m/s 673 mmHg 81%
    03:00 -25°C° 0 mm 5 m/s 673 mmHg 80%
    04:00 -26°C° 0 mm 6 m/s 673 mmHg 79%
    05:00 -27°C° 0 mm 6 m/s 673 mmHg 78%
    06:00 -27°C° 0 mm 6 m/s 674 mmHg 78%
    07:00 -27°C° 0 mm 6 m/s 674 mmHg 78%
    08:00 -27°C° 0 mm 6 m/s 674 mmHg 78%
    09:00 -26°C° 0 mm 6 m/s 674 mmHg 74%
    10:00 -26°C° 0 mm 7 m/s 674 mmHg 70%
    11:00 -25°C° 0 mm 7 m/s 675 mmHg 66%
    12:00 -25°C° 0 mm 7 m/s 674 mmHg 65%
    13:00 -24°C° 0 mm 7 m/s 674 mmHg 65%
    14:00 -23°C° 0 mm 7 m/s 674 mmHg 64%
    15:00 -23°C° 0 mm 6 m/s 674 mmHg 68%
    16:00 -22°C° 0 mm 5 m/s 674 mmHg 72%
    17:00 -24°C° 0 mm 5 m/s 674 mmHg 77%
    18:00 -22°C° 0 mm 5 m/s 674 mmHg 78%
    19:00 -22°C° 0 mm 5 m/s 674 mmHg 79%
    20:00 -22°C° 0 mm 5 m/s 673 mmHg 80%
    21:00 -23°C° 0 mm 6 m/s 673 mmHg 79%
    22:00 -22°C° 0 mm 6 m/s 673 mmHg 79%
    23:00 -22°C° 0 mm 6 m/s 673 mmHg 78%
    Mostrar mais